Year,Month,Day,Hour,Minute,Value (Times are PST for temperature in C)
2016,07,10,00,00,13.20
2016,07,10,00,01,13.10
2016,07,10,00,02,13.10
2016,07,10,00,03,13.10
2016,07,10,00,04,13.10
2016,07,10,00,05,13.10
2016,07,10,00,06,13.10
2016,07,10,00,07,13.10
2016,07,10,00,08,13.10
2016,07,10,00,09,13.10
2016,07,10,00,10,13.00
2016,07,10,00,11,13.00
2016,07,10,00,12,13.00
2016,07,10,00,13,13.00
2016,07,10,00,14,13.00
2016,07,10,00,15,13.00
2016,07,10,00,16,13.00
2016,07,10,00,17,12.90
2016,07,10,00,18,12.90
2016,07,10,00,19,13.00
2016,07,10,00,20,13.00
2016,07,10,00,21,13.00
2016,07,10,00,22,13.00
2016,07,10,00,23,13.10
2016,07,10,00,24,13.10
2016,07,10,00,25,13.10
2016,07,10,00,26,13.10
2016,07,10,00,27,13.10
2016,07,10,00,28,13.10
2016,07,10,00,29,13.10
2016,07,10,00,30,13.10
2016,07,10,00,31,13.10
2016,07,10,00,32,13.10
2016,07,10,00,33,13.20
2016,07,10,00,34,13.20
2016,07,10,00,35,13.10
2016,07,10,00,36,13.10
2016,07,10,00,37,13.10
2016,07,10,00,38,13.10
2016,07,10,00,39,13.10
2016,07,10,00,40,13.10
2016,07,10,00,41,13.10
2016,07,10,00,42,13.00
2016,07,10,00,43,13.00
2016,07,10,00,44,12.90
2016,07,10,00,45,12.90
2016,07,10,00,46,12.90
2016,07,10,00,47,12.90
2016,07,10,00,48,12.80
2016,07,10,00,49,12.80
2016,07,10,00,50,12.80
2016,07,10,00,51,12.80
2016,07,10,00,52,12.80
2016,07,10,00,53,12.80
2016,07,10,00,54,12.80
2016,07,10,00,55,12.90
2016,07,10,00,56,12.90
2016,07,10,00,57,12.90
2016,07,10,00,58,12.90
2016,07,10,00,59,12.90
2016,07,10,01,00,12.90
2016,07,10,01,01,12.90
2016,07,10,01,02,12.90
2016,07,10,01,03,12.90
2016,07,10,01,04,12.90
2016,07,10,01,05,12.90
2016,07,10,01,06,12.90
2016,07,10,01,07,12.90
2016,07,10,01,08,12.90
2016,07,10,01,09,12.90
2016,07,10,01,10,12.80
2016,07,10,01,11,12.80
2016,07,10,01,12,12.80
2016,07,10,01,13,12.80
2016,07,10,01,14,12.80
2016,07,10,01,15,12.80
2016,07,10,01,16,12.80
2016,07,10,01,17,12.80
2016,07,10,01,18,12.80
2016,07,10,01,19,12.80
2016,07,10,01,20,12.80
2016,07,10,01,21,12.80
2016,07,10,01,22,12.80
2016,07,10,01,23,12.80
2016,07,10,01,24,12.80
2016,07,10,01,25,12.80
2016,07,10,01,26,12.80
2016,07,10,01,27,12.70
2016,07,10,01,28,12.70
2016,07,10,01,29,12.70
2016,07,10,01,30,12.60
2016,07,10,01,31,12.60
2016,07,10,01,32,12.60
2016,07,10,01,33,12.60
2016,07,10,01,34,12.60
2016,07,10,01,35,12.60
2016,07,10,01,36,12.60
2016,07,10,01,37,12.60
2016,07,10,01,38,12.60
2016,07,10,01,39,12.60
2016,07,10,01,40,12.50
2016,07,10,01,41,12.50
2016,07,10,01,42,12.50
2016,07,10,01,43,12.50
2016,07,10,01,44,12.50
2016,07,10,01,45,12.40
2016,07,10,01,46,12.40
2016,07,10,01,47,12.40
2016,07,10,01,48,12.40
2016,07,10,01,49,12.40
2016,07,10,01,50,12.40
2016,07,10,01,51,12.40
2016,07,10,01,52,12.30
2016,07,10,01,53,12.30
2016,07,10,01,54,12.30
2016,07,10,01,55,12.30
2016,07,10,01,56,12.30
2016,07,10,01,57,12.20
2016,07,10,01,58,12.20
2016,07,10,01,59,12.20
2016,07,10,02,00,12.20
2016,07,10,02,01,12.20
2016,07,10,02,02,12.20
2016,07,10,02,03,12.20
2016,07,10,02,04,12.20
2016,07,10,02,05,12.20
2016,07,10,02,06,12.20
2016,07,10,02,07,12.20
2016,07,10,02,08,12.20
2016,07,10,02,09,12.20
2016,07,10,02,10,12.20
2016,07,10,02,11,12.20
2016,07,10,02,12,12.20
2016,07,10,02,13,12.20
2016,07,10,02,14,12.20
2016,07,10,02,15,12.20
2016,07,10,02,16,12.10
2016,07,10,02,17,12.10
2016,07,10,02,18,12.10
2016,07,10,02,19,12.10
2016,07,10,02,20,12.10
2016,07,10,02,21,12.00
2016,07,10,02,22,12.00
2016,07,10,02,23,12.00
2016,07,10,02,24,12.00
2016,07,10,02,25,12.00
2016,07,10,02,26,12.00
2016,07,10,02,27,12.00
2016,07,10,02,28,12.10
2016,07,10,02,29,12.10
2016,07,10,02,30,12.10
2016,07,10,02,31,12.10
2016,07,10,02,32,12.10
2016,07,10,02,33,12.10
2016,07,10,02,34,12.10
2016,07,10,02,35,12.10
2016,07,10,02,36,12.10
2016,07,10,02,37,12.10
2016,07,10,02,38,12.10
2016,07,10,02,39,12.10
2016,07,10,02,40,12.10
2016,07,10,02,41,12.10
2016,07,10,02,42,12.10
2016,07,10,02,43,12.10
2016,07,10,02,44,12.10
2016,07,10,02,45,12.10
2016,07,10,02,46,12.20
2016,07,10,02,47,12.20
2016,07,10,02,48,12.20
2016,07,10,02,49,12.20
2016,07,10,02,50,12.20
2016,07,10,02,51,12.20
2016,07,10,02,52,12.20
2016,07,10,02,53,12.20
2016,07,10,02,54,12.20
2016,07,10,02,55,12.20
2016,07,10,02,56,12.20
2016,07,10,02,57,12.20
2016,07,10,02,58,12.20
2016,07,10,02,59,12.30
2016,07,10,03,00,12.30
2016,07,10,03,01,12.30
2016,07,10,03,02,12.30
2016,07,10,03,03,12.30
2016,07,10,03,04,12.30
2016,07,10,03,05,12.30
2016,07,10,03,06,12.40
2016,07,10,03,07,12.40
2016,07,10,03,08,12.40
2016,07,10,03,09,12.40
2016,07,10,03,10,12.40
2016,07,10,03,11,12.50
2016,07,10,03,12,12.50
2016,07,10,03,13,12.50
2016,07,10,03,14,12.60
2016,07,10,03,15,12.60
2016,07,10,03,16,12.60
2016,07,10,03,17,12.60
2016,07,10,03,18,12.60
2016,07,10,03,19,12.60
2016,07,10,03,20,12.60
2016,07,10,03,21,12.60
2016,07,10,03,22,12.60
2016,07,10,03,23,12.70
2016,07,10,03,24,12.70
2016,07,10,03,25,12.70
2016,07,10,03,26,12.70
2016,07,10,03,27,12.70
2016,07,10,03,28,12.70
2016,07,10,03,29,12.70
2016,07,10,03,30,12.70
2016,07,10,03,31,12.70
2016,07,10,03,32,12.70
2016,07,10,03,33,12.70
2016,07,10,03,34,12.70
2016,07,10,03,35,12.70
2016,07,10,03,36,12.70
2016,07,10,03,37,12.70
2016,07,10,03,38,12.80
2016,07,10,03,39,12.80
2016,07,10,03,40,12.80
2016,07,10,03,41,12.80
2016,07,10,03,42,12.70
2016,07,10,03,43,12.70
2016,07,10,03,44,12.70
2016,07,10,03,45,12.70
2016,07,10,03,46,12.70
2016,07,10,03,47,12.70
2016,07,10,03,48,12.70
2016,07,10,03,49,12.70
2016,07,10,03,50,12.70
2016,07,10,03,51,12.70
2016,07,10,03,52,12.70
2016,07,10,03,53,12.70
2016,07,10,03,54,12.60
2016,07,10,03,55,12.60
2016,07,10,03,56,12.60
2016,07,10,03,57,12.60
2016,07,10,03,58,12.60
2016,07,10,03,59,12.50
2016,07,10,04,00,12.50
2016,07,10,04,01,12.50
2016,07,10,04,02,12.50
2016,07,10,04,03,12.50
2016,07,10,04,04,12.50
2016,07,10,04,05,12.50
2016,07,10,04,06,12.50
2016,07,10,04,07,12.50
2016,07,10,04,08,12.50
2016,07,10,04,09,12.50
2016,07,10,04,10,12.50
2016,07,10,04,11,12.50
2016,07,10,04,12,12.50
2016,07,10,04,13,12.50
2016,07,10,04,14,12.50
2016,07,10,04,15,12.50
2016,07,10,04,16,12.50
2016,07,10,04,17,12.40
2016,07,10,04,18,12.40
2016,07,10,04,19,12.40
2016,07,10,04,20,12.40
2016,07,10,04,21,12.40
2016,07,10,04,22,12.40
2016,07,10,04,23,12.40
2016,07,10,04,24,12.40
2016,07,10,04,25,12.40
2016,07,10,04,26,12.40
2016,07,10,04,27,12.40
2016,07,10,04,28,12.40
2016,07,10,04,29,12.40
2016,07,10,04,30,12.40
2016,07,10,04,31,12.40
2016,07,10,04,32,12.30
2016,07,10,04,33,12.30
2016,07,10,04,34,12.30
2016,07,10,04,35,12.20
2016,07,10,04,36,12.20
2016,07,10,04,37,12.10
2016,07,10,04,38,12.00
2016,07,10,04,39,12.00
2016,07,10,04,40,11.90
2016,07,10,04,41,11.80
2016,07,10,04,42,11.80
2016,07,10,04,43,11.70
2016,07,10,04,44,11.70
2016,07,10,04,45,11.60
2016,07,10,04,46,11.60
2016,07,10,04,47,11.60
2016,07,10,04,48,11.60
2016,07,10,04,49,11.50
2016,07,10,04,50,11.50
2016,07,10,04,51,11.40
2016,07,10,04,52,11.40
2016,07,10,04,53,11.40
2016,07,10,04,54,11.40
2016,07,10,04,55,11.40
2016,07,10,04,56,11.40
2016,07,10,04,57,11.40
2016,07,10,04,58,11.30
2016,07,10,04,59,11.30
2016,07,10,05,00,11.30
2016,07,10,05,01,11.30
2016,07,10,05,02,11.40
2016,07,10,05,03,11.40
2016,07,10,05,04,11.40
2016,07,10,05,05,11.40
2016,07,10,05,06,11.40
2016,07,10,05,07,11.40
2016,07,10,05,08,11.40
2016,07,10,05,09,11.40
2016,07,10,05,10,11.40
2016,07,10,05,11,11.40
2016,07,10,05,12,11.40
2016,07,10,05,13,11.40
2016,07,10,05,14,11.50
2016,07,10,05,15,11.50
2016,07,10,05,16,11.50
2016,07,10,05,17,11.60
2016,07,10,05,18,11.60
2016,07,10,05,19,11.70
2016,07,10,05,20,11.70
2016,07,10,05,21,11.70
2016,07,10,05,22,11.70
2016,07,10,05,23,11.70
2016,07,10,05,24,11.70
2016,07,10,05,25,11.70
2016,07,10,05,26,11.80
2016,07,10,05,27,11.80
2016,07,10,05,28,11.80
2016,07,10,05,29,11.90
2016,07,10,05,30,11.90
2016,07,10,05,31,11.90
2016,07,10,05,32,11.90
2016,07,10,05,33,11.90
2016,07,10,05,34,11.90
2016,07,10,05,35,11.90
2016,07,10,05,36,11.90
2016,07,10,05,37,12.00
2016,07,10,05,38,12.00
2016,07,10,05,39,12.10
2016,07,10,05,40,12.10
2016,07,10,05,41,12.10
2016,07,10,05,42,12.10
2016,07,10,05,43,12.20
2016,07,10,05,44,12.20
2016,07,10,05,45,12.20
2016,07,10,05,46,12.20
2016,07,10,05,47,12.20
2016,07,10,05,48,12.20
2016,07,10,05,49,12.20
2016,07,10,05,50,12.20
2016,07,10,05,51,12.20
2016,07,10,05,52,12.20
2016,07,10,05,53,12.30
2016,07,10,05,54,12.30
2016,07,10,05,55,12.30
2016,07,10,05,56,12.30
2016,07,10,05,57,12.40
2016,07,10,05,58,12.50
2016,07,10,05,59,12.50
2016,07,10,06,00,12.60
2016,07,10,06,01,12.60
2016,07,10,06,02,12.60
2016,07,10,06,03,12.60
2016,07,10,06,04,12.70
2016,07,10,06,05,12.70
2016,07,10,06,06,12.80
2016,07,10,06,07,12.80
2016,07,10,06,08,12.90
2016,07,10,06,09,12.90
2016,07,10,06,10,12.90
2016,07,10,06,11,12.90
2016,07,10,06,12,12.90
2016,07,10,06,13,12.90
2016,07,10,06,14,12.90
2016,07,10,06,15,12.90
2016,07,10,06,16,13.00
2016,07,10,06,17,13.00
2016,07,10,06,18,13.00
2016,07,10,06,19,13.00
2016,07,10,06,20,13.10
2016,07,10,06,21,13.10
2016,07,10,06,22,13.10
2016,07,10,06,23,13.20
2016,07,10,06,24,13.20
2016,07,10,06,25,13.30
2016,07,10,06,26,13.30
2016,07,10,06,27,13.40
2016,07,10,06,28,13.50
2016,07,10,06,29,13.60
2016,07,10,06,30,13.60
2016,07,10,06,31,13.70
2016,07,10,06,32,13.80
2016,07,10,06,33,13.80
2016,07,10,06,34,13.90
2016,07,10,06,35,13.90
2016,07,10,06,36,14.00
2016,07,10,06,37,14.10
2016,07,10,06,38,14.10
2016,07,10,06,39,14.20
2016,07,10,06,40,14.20
2016,07,10,06,41,14.30
2016,07,10,06,42,14.30
2016,07,10,06,43,14.30
2016,07,10,06,44,14.40
2016,07,10,06,45,14.40
2016,07,10,06,46,14.40
2016,07,10,06,47,14.50
2016,07,10,06,48,14.50
2016,07,10,06,49,14.60
2016,07,10,06,50,14.60
2016,07,10,06,51,14.60
2016,07,10,06,52,14.60
2016,07,10,06,53,14.60
2016,07,10,06,54,14.70
2016,07,10,06,55,14.70
2016,07,10,06,56,14.70
2016,07,10,06,57,14.70
2016,07,10,06,58,14.70
2016,07,10,06,59,14.80
2016,07,10,07,00,14.80
2016,07,10,07,01,14.80
2016,07,10,07,02,14.90
2016,07,10,07,03,14.90
2016,07,10,07,04,15.00
2016,07,10,07,05,15.00
2016,07,10,07,06,15.00
2016,07,10,07,07,15.00
2016,07,10,07,08,15.00
2016,07,10,07,09,15.00
2016,07,10,07,10,15.10
2016,07,10,07,11,15.20
2016,07,10,07,12,15.20
2016,07,10,07,13,15.30
2016,07,10,07,14,15.30
2016,07,10,07,15,15.30
2016,07,10,07,16,15.40
2016,07,10,07,17,15.50
2016,07,10,07,18,15.50
2016,07,10,07,19,15.60
2016,07,10,07,20,15.60
2016,07,10,07,21,15.60
2016,07,10,07,22,15.60
2016,07,10,07,23,15.70
2016,07,10,07,24,15.70
2016,07,10,07,25,15.70
2016,07,10,07,26,15.80
2016,07,10,07,27,15.80
2016,07,10,07,28,15.90
2016,07,10,07,29,16.00
2016,07,10,07,30,16.00
2016,07,10,07,31,16.10
2016,07,10,07,32,16.10
2016,07,10,07,33,16.20
2016,07,10,07,34,16.20
2016,07,10,07,35,16.20
2016,07,10,07,36,16.20
2016,07,10,07,37,16.20
2016,07,10,07,38,16.20
2016,07,10,07,39,16.20
2016,07,10,07,40,16.20
2016,07,10,07,41,16.20
2016,07,10,07,42,16.20
2016,07,10,07,43,16.20
2016,07,10,07,44,16.20
2016,07,10,07,45,16.20
2016,07,10,07,46,16.20
2016,07,10,07,47,16.20
2016,07,10,07,48,16.20
2016,07,10,07,49,16.20
2016,07,10,07,50,16.20
2016,07,10,07,51,16.20
2016,07,10,07,52,16.20
2016,07,10,07,53,16.20
2016,07,10,07,54,16.30
2016,07,10,07,55,16.30
2016,07,10,07,56,16.30
2016,07,10,07,57,16.30
2016,07,10,07,58,16.30
2016,07,10,07,59,16.30
2016,07,10,08,00,16.30
2016,07,10,08,01,16.30
2016,07,10,08,02,16.30
2016,07,10,08,03,16.40
2016,07,10,08,04,16.40
2016,07,10,08,05,16.40
2016,07,10,08,06,16.40
2016,07,10,08,07,16.40
2016,07,10,08,08,16.40
2016,07,10,08,09,16.40
2016,07,10,08,10,16.50
2016,07,10,08,11,16.50
2016,07,10,08,12,16.60
2016,07,10,08,13,16.60
2016,07,10,08,14,16.60
2016,07,10,08,15,16.60
2016,07,10,08,16,16.60
2016,07,10,08,17,16.70
2016,07,10,08,18,16.70
2016,07,10,08,19,16.80
2016,07,10,08,20,16.80
2016,07,10,08,21,16.80
2016,07,10,08,22,16.90
2016,07,10,08,23,16.90
2016,07,10,08,24,16.90
2016,07,10,08,25,16.90
2016,07,10,08,26,16.90
2016,07,10,08,27,16.90
2016,07,10,08,28,16.90
2016,07,10,08,29,17.00
2016,07,10,08,30,17.00
2016,07,10,08,31,17.00
2016,07,10,08,32,17.00
2016,07,10,08,33,17.00
2016,07,10,08,34,17.10
2016,07,10,08,35,17.10
2016,07,10,08,36,17.10
2016,07,10,08,37,17.10
2016,07,10,08,38,17.20
2016,07,10,08,39,17.20
2016,07,10,08,40,17.20
2016,07,10,08,41,17.20
2016,07,10,08,42,17.20
2016,07,10,08,43,17.20
2016,07,10,08,44,17.20
2016,07,10,08,45,17.20
2016,07,10,08,46,17.10
2016,07,10,08,47,17.10
2016,07,10,08,48,17.10
2016,07,10,08,49,17.10
2016,07,10,08,50,17.00
2016,07,10,08,51,17.00
2016,07,10,08,52,16.90
2016,07,10,08,53,16.90
2016,07,10,08,54,16.90
2016,07,10,08,55,16.90
2016,07,10,08,56,16.80
2016,07,10,08,57,16.80
2016,07,10,08,58,16.80
2016,07,10,08,59,16.80
2016,07,10,09,00,16.70
2016,07,10,09,01,16.70
2016,07,10,09,02,16.60
2016,07,10,09,03,16.60
2016,07,10,09,04,16.50
2016,07,10,09,05,16.40
2016,07,10,09,06,16.40
2016,07,10,09,07,16.40
2016,07,10,09,08,16.40
2016,07,10,09,09,16.40
2016,07,10,09,10,16.40
2016,07,10,09,11,16.40
2016,07,10,09,12,16.40
2016,07,10,09,13,16.40
2016,07,10,09,14,16.40
2016,07,10,09,15,16.40
2016,07,10,09,16,16.40
2016,07,10,09,17,16.40
2016,07,10,09,18,16.40
2016,07,10,09,19,16.50
2016,07,10,09,20,16.50
2016,07,10,09,21,16.60
2016,07,10,09,22,16.60
2016,07,10,09,23,16.70
2016,07,10,09,24,16.70
2016,07,10,09,25,16.70
2016,07,10,09,26,16.70
2016,07,10,09,27,16.70
2016,07,10,09,28,16.80
2016,07,10,09,29,16.80
2016,07,10,09,30,16.90
2016,07,10,09,31,16.90
2016,07,10,09,32,16.90
2016,07,10,09,33,17.00
2016,07,10,09,34,17.00
2016,07,10,09,35,17.10
2016,07,10,09,36,17.10
2016,07,10,09,37,17.10
2016,07,10,09,38,17.10
2016,07,10,09,39,17.10
2016,07,10,09,40,17.10
2016,07,10,09,41,17.10
2016,07,10,09,42,17.10
2016,07,10,09,43,17.10
2016,07,10,09,44,17.10
2016,07,10,09,45,17.10
2016,07,10,09,46,17.00
2016,07,10,09,47,17.00
2016,07,10,09,48,17.00
2016,07,10,09,49,17.10
2016,07,10,09,50,17.10
2016,07,10,09,51,17.10
2016,07,10,09,52,17.20
2016,07,10,09,53,17.20
2016,07,10,09,54,17.30
2016,07,10,09,55,17.30
2016,07,10,09,56,17.40
2016,07,10,09,57,17.40
2016,07,10,09,58,17.30
2016,07,10,09,59,17.30
2016,07,10,10,00,17.30
2016,07,10,10,01,17.30
2016,07,10,10,02,17.20
2016,07,10,10,03,17.20
2016,07,10,10,04,17.10
2016,07,10,10,05,17.00
2016,07,10,10,06,16.90
2016,07,10,10,07,16.80
2016,07,10,10,08,16.80
2016,07,10,10,09,16.80
2016,07,10,10,10,16.80
2016,07,10,10,11,16.80
2016,07,10,10,12,16.80
2016,07,10,10,13,16.80
2016,07,10,10,14,16.80
2016,07,10,10,15,16.80
2016,07,10,10,16,16.90
2016,07,10,10,17,16.90
2016,07,10,10,18,16.90
2016,07,10,10,19,16.90
2016,07,10,10,20,16.80
2016,07,10,10,21,16.80
2016,07,10,10,22,16.90
2016,07,10,10,23,16.90
2016,07,10,10,24,16.90
2016,07,10,10,25,16.90
2016,07,10,10,26,16.90
2016,07,10,10,27,17.00
2016,07,10,10,28,17.00
2016,07,10,10,29,17.10
2016,07,10,10,30,17.10
2016,07,10,10,31,17.10
2016,07,10,10,32,17.10
2016,07,10,10,33,17.20
2016,07,10,10,34,17.20
2016,07,10,10,35,17.30
2016,07,10,10,36,17.30
2016,07,10,10,37,17.30
2016,07,10,10,38,17.30
2016,07,10,10,39,17.30
2016,07,10,10,40,17.20
2016,07,10,10,41,17.20
2016,07,10,10,42,17.20
2016,07,10,10,43,17.20
2016,07,10,10,44,17.20
2016,07,10,10,45,17.20
2016,07,10,10,46,17.20
2016,07,10,10,47,17.20
2016,07,10,10,48,17.20
2016,07,10,10,49,17.30
2016,07,10,10,50,17.30
2016,07,10,10,51,17.30
2016,07,10,10,52,17.40
2016,07,10,10,53,17.40
2016,07,10,10,54,17.40
2016,07,10,10,55,17.40
2016,07,10,10,56,17.40
2016,07,10,10,57,17.40
2016,07,10,10,58,17.40
2016,07,10,10,59,17.50
2016,07,10,11,00,17.60
2016,07,10,11,01,17.60
2016,07,10,11,02,17.60
2016,07,10,11,03,17.70
2016,07,10,11,04,17.70
2016,07,10,11,05,17.70
2016,07,10,11,06,17.70
2016,07,10,11,07,17.70
2016,07,10,11,08,17.70
2016,07,10,11,09,17.70
2016,07,10,11,10,17.80
2016,07,10,11,11,17.80
2016,07,10,11,12,17.80
2016,07,10,11,13,17.80
2016,07,10,11,14,17.80
2016,07,10,11,15,17.80
2016,07,10,11,16,17.80
2016,07,10,11,17,17.80
2016,07,10,11,18,17.80
2016,07,10,11,19,17.80
2016,07,10,11,20,17.80
2016,07,10,11,21,17.80
2016,07,10,11,22,17.80
2016,07,10,11,23,17.70
2016,07,10,11,24,17.70
2016,07,10,11,25,17.70
2016,07,10,11,26,17.70
2016,07,10,11,27,17.70
2016,07,10,11,28,17.70
2016,07,10,11,29,17.70
2016,07,10,11,30,17.70
2016,07,10,11,31,17.70
2016,07,10,11,32,17.70
2016,07,10,11,33,17.70
2016,07,10,11,34,17.70
2016,07,10,11,35,17.70
2016,07,10,11,36,17.70
2016,07,10,11,37,17.70
2016,07,10,11,38,17.70
2016,07,10,11,39,17.70
2016,07,10,11,40,17.70
2016,07,10,11,41,17.70
2016,07,10,11,42,17.60
2016,07,10,11,43,17.60
2016,07,10,11,44,17.60
2016,07,10,11,45,17.50
2016,07,10,11,46,17.40
2016,07,10,11,47,17.40
2016,07,10,11,48,17.30
2016,07,10,11,49,17.30
2016,07,10,11,50,17.30
2016,07,10,11,51,17.30
2016,07,10,11,52,17.30
2016,07,10,11,53,17.30
2016,07,10,11,54,17.30
2016,07,10,11,55,17.30
2016,07,10,11,56,17.30
2016,07,10,11,57,17.40
2016,07,10,11,58,17.40
2016,07,10,11,59,17.40
2016,07,10,12,00,17.50
2016,07,10,12,01,17.50
2016,07,10,12,02,17.50
2016,07,10,12,03,17.60
2016,07,10,12,04,17.60
2016,07,10,12,05,17.70
2016,07,10,12,06,17.70
2016,07,10,12,07,17.70
2016,07,10,12,08,17.70
2016,07,10,12,09,17.70
2016,07,10,12,10,17.70
2016,07,10,12,11,17.80
2016,07,10,12,12,17.80
2016,07,10,12,13,17.90
2016,07,10,12,14,18.00
2016,07,10,12,15,18.00
2016,07,10,12,16,18.10
2016,07,10,12,17,18.20
2016,07,10,12,18,18.30
2016,07,10,12,19,18.30
2016,07,10,12,20,18.40
2016,07,10,12,21,18.40
2016,07,10,12,22,18.50
2016,07,10,12,23,18.60
2016,07,10,12,24,18.60
2016,07,10,12,25,18.60
2016,07,10,12,26,18.70
2016,07,10,12,27,18.70
2016,07,10,12,28,18.80
2016,07,10,12,29,18.90
2016,07,10,12,30,18.90
2016,07,10,12,31,18.90
2016,07,10,12,32,18.90
2016,07,10,12,33,18.80
2016,07,10,12,34,18.70
2016,07,10,12,35,18.60
2016,07,10,12,36,18.60
2016,07,10,12,37,18.60
2016,07,10,12,38,18.50
2016,07,10,12,39,18.40
2016,07,10,12,40,18.30
2016,07,10,12,41,18.20
2016,07,10,12,42,18.00
2016,07,10,12,43,17.80
2016,07,10,12,44,17.70
2016,07,10,12,45,17.60
2016,07,10,12,46,17.50
2016,07,10,12,47,17.50
2016,07,10,12,48,17.40
2016,07,10,12,49,17.50
2016,07,10,12,50,17.50
2016,07,10,12,51,17.60
2016,07,10,12,52,17.70
2016,07,10,12,53,17.80
2016,07,10,12,54,18.00
2016,07,10,12,55,18.10
2016,07,10,12,56,18.30
2016,07,10,12,57,18.40
2016,07,10,12,58,18.50
2016,07,10,12,59,18.70
2016,07,10,13,00,18.80
2016,07,10,13,01,19.00
2016,07,10,13,02,19.10
2016,07,10,13,03,19.20
2016,07,10,13,04,19.20
2016,07,10,13,05,19.30
2016,07,10,13,06,19.30
2016,07,10,13,07,19.30
2016,07,10,13,08,19.40
2016,07,10,13,09,19.40
2016,07,10,13,10,19.50
2016,07,10,13,11,19.60
2016,07,10,13,12,19.70
2016,07,10,13,13,19.70
2016,07,10,13,14,19.70
2016,07,10,13,15,19.80
2016,07,10,13,16,19.80
2016,07,10,13,17,19.90
2016,07,10,13,18,20.00
2016,07,10,13,19,20.00
2016,07,10,13,20,20.10
2016,07,10,13,21,20.20
2016,07,10,13,22,20.20
2016,07,10,13,23,20.20
2016,07,10,13,24,20.20
2016,07,10,13,25,20.30
2016,07,10,13,26,20.30
2016,07,10,13,27,20.30
2016,07,10,13,28,20.20
2016,07,10,13,29,20.20
2016,07,10,13,30,20.10
2016,07,10,13,31,20.00
2016,07,10,13,32,20.00
2016,07,10,13,33,19.90
2016,07,10,13,34,20.00
2016,07,10,13,35,20.00
2016,07,10,13,36,20.00
2016,07,10,13,37,20.00
2016,07,10,13,38,20.00
2016,07,10,13,39,20.10
2016,07,10,13,40,20.10
2016,07,10,13,41,20.10
2016,07,10,13,42,20.10
2016,07,10,13,43,20.10
2016,07,10,13,44,20.00
2016,07,10,13,45,20.10
2016,07,10,13,46,20.10
2016,07,10,13,47,20.10
2016,07,10,13,48,20.10
2016,07,10,13,49,20.10
2016,07,10,13,50,20.00
2016,07,10,13,51,20.00
2016,07,10,13,52,20.00
2016,07,10,13,53,20.00
2016,07,10,13,54,20.10
2016,07,10,13,55,20.20
2016,07,10,13,56,20.20
2016,07,10,13,57,20.20
2016,07,10,13,58,20.20
2016,07,10,13,59,20.20
2016,07,10,14,00,20.30
2016,07,10,14,01,20.30
2016,07,10,14,02,20.30
2016,07,10,14,03,20.30
2016,07,10,14,04,20.30
2016,07,10,14,05,20.40
2016,07,10,14,06,20.40
2016,07,10,14,07,20.40
2016,07,10,14,08,20.50
2016,07,10,14,09,20.50
2016,07,10,14,10,20.60
2016,07,10,14,11,20.60
2016,07,10,14,12,20.60
2016,07,10,14,13,20.60
2016,07,10,14,14,20.60
2016,07,10,14,15,20.60
2016,07,10,14,16,20.60
2016,07,10,14,17,20.60
2016,07,10,14,18,20.60
2016,07,10,14,19,20.60
2016,07,10,14,20,20.60
2016,07,10,14,21,20.60
2016,07,10,14,22,20.50
2016,07,10,14,23,20.50
2016,07,10,14,24,20.40
2016,07,10,14,25,20.40
2016,07,10,14,26,20.40
2016,07,10,14,27,20.40
2016,07,10,14,28,20.30
2016,07,10,14,29,20.30
2016,07,10,14,30,20.30
2016,07,10,14,31,20.30
2016,07,10,14,32,20.30
2016,07,10,14,33,20.40
2016,07,10,14,34,20.40
2016,07,10,14,35,20.50
2016,07,10,14,36,20.60
2016,07,10,14,37,20.60
2016,07,10,14,38,20.60
2016,07,10,14,39,20.50
2016,07,10,14,40,20.40
2016,07,10,14,41,20.40
2016,07,10,14,42,20.40
2016,07,10,14,43,20.40
2016,07,10,14,44,20.40
2016,07,10,14,45,20.30
2016,07,10,14,46,20.30
2016,07,10,14,47,20.30
2016,07,10,14,48,20.40
2016,07,10,14,49,20.50
2016,07,10,14,50,20.60
2016,07,10,14,51,20.70
2016,07,10,14,52,20.80
2016,07,10,14,53,20.90
2016,07,10,14,54,21.00
2016,07,10,14,55,21.10
2016,07,10,14,56,21.10
2016,07,10,14,57,21.20
2016,07,10,14,58,21.20
2016,07,10,14,59,21.20
2016,07,10,15,00,21.20
2016,07,10,15,01,21.20
2016,07,10,15,02,21.20
2016,07,10,15,03,21.10
2016,07,10,15,04,21.10
2016,07,10,15,05,21.00
2016,07,10,15,06,20.90
2016,07,10,15,07,20.90
2016,07,10,15,08,20.80
2016,07,10,15,09,20.70
2016,07,10,15,10,20.60
2016,07,10,15,11,20.50
2016,07,10,15,12,20.50
2016,07,10,15,13,20.50
2016,07,10,15,14,20.50
2016,07,10,15,15,20.60
2016,07,10,15,16,20.60
2016,07,10,15,17,20.70
2016,07,10,15,18,20.70
2016,07,10,15,19,20.80
2016,07,10,15,20,20.80
2016,07,10,15,21,20.80
2016,07,10,15,22,20.80
2016,07,10,15,23,20.80
2016,07,10,15,24,20.80
2016,07,10,15,25,20.80
2016,07,10,15,26,20.90
2016,07,10,15,27,20.90
2016,07,10,15,28,21.00
2016,07,10,15,29,21.10
2016,07,10,15,30,21.10
2016,07,10,15,31,21.10
2016,07,10,15,32,21.20
2016,07,10,15,33,21.30
2016,07,10,15,34,21.30
2016,07,10,15,35,21.40
2016,07,10,15,36,21.40
2016,07,10,15,37,21.50
2016,07,10,15,38,21.50
2016,07,10,15,39,21.60
2016,07,10,15,40,21.60
2016,07,10,15,41,21.60
2016,07,10,15,42,21.70
2016,07,10,15,43,21.70
2016,07,10,15,44,21.70
2016,07,10,15,45,21.80
2016,07,10,15,46,21.80
2016,07,10,15,47,21.80
2016,07,10,15,48,21.80
2016,07,10,15,49,21.80
2016,07,10,15,50,21.70
2016,07,10,15,51,21.70
2016,07,10,15,52,21.60
2016,07,10,15,53,21.60
2016,07,10,15,54,21.50
2016,07,10,15,55,21.50
2016,07,10,15,56,21.40
2016,07,10,15,57,21.40
2016,07,10,15,58,21.40
2016,07,10,15,59,21.40
2016,07,10,16,00,21.40
2016,07,10,16,01,21.40
2016,07,10,16,02,21.30
2016,07,10,16,03,21.30
2016,07,10,16,04,21.30
2016,07,10,16,05,21.30
2016,07,10,16,06,21.30
2016,07,10,16,07,21.30
2016,07,10,16,08,21.30
2016,07,10,16,09,21.30
2016,07,10,16,10,21.40
2016,07,10,16,11,21.40
2016,07,10,16,12,21.50
2016,07,10,16,13,21.60
2016,07,10,16,14,21.60
2016,07,10,16,15,21.60
2016,07,10,16,16,21.60
2016,07,10,16,17,21.60
2016,07,10,16,18,21.50
2016,07,10,16,19,21.40
2016,07,10,16,20,21.40
2016,07,10,16,21,21.40
2016,07,10,16,22,21.30
2016,07,10,16,23,21.30
2016,07,10,16,24,21.30
2016,07,10,16,25,21.30
2016,07,10,16,26,21.30
2016,07,10,16,27,21.30
2016,07,10,16,28,21.40
2016,07,10,16,29,21.40
2016,07,10,16,30,21.50
2016,07,10,16,31,21.50
2016,07,10,16,32,21.60
2016,07,10,16,33,21.60
2016,07,10,16,34,21.70
2016,07,10,16,35,21.70
2016,07,10,16,36,21.70
2016,07,10,16,37,21.70
2016,07,10,16,38,21.70
2016,07,10,16,39,21.80
2016,07,10,16,40,21.80
2016,07,10,16,41,21.80
2016,07,10,16,42,21.80
2016,07,10,16,43,21.80
2016,07,10,16,44,21.70
2016,07,10,16,45,21.70
2016,07,10,16,46,21.60
2016,07,10,16,47,21.60
2016,07,10,16,48,21.60
2016,07,10,16,49,21.50
2016,07,10,16,50,21.40
2016,07,10,16,51,21.40
2016,07,10,16,52,21.30
2016,07,10,16,53,21.20
2016,07,10,16,54,21.10
2016,07,10,16,55,21.10
2016,07,10,16,56,21.10
2016,07,10,16,57,21.00
2016,07,10,16,58,21.00
2016,07,10,16,59,21.10
2016,07,10,17,00,21.10
2016,07,10,17,01,21.10
2016,07,10,17,02,21.10
2016,07,10,17,03,21.20
2016,07,10,17,04,21.20
2016,07,10,17,05,21.20
2016,07,10,17,06,21.30
2016,07,10,17,07,21.30
2016,07,10,17,08,21.30
2016,07,10,17,09,21.30
2016,07,10,17,10,21.30
2016,07,10,17,11,21.40
2016,07,10,17,12,21.40
2016,07,10,17,13,21.40
2016,07,10,17,14,21.50
2016,07,10,17,15,21.50
2016,07,10,17,16,21.60
2016,07,10,17,17,21.60
2016,07,10,17,18,21.70
2016,07,10,17,19,21.80